DL9DCA-13 Weather Reports


time (UTC)temp
C
wind
direction
speed
KPH
gust
KPH
rain 1hr
cm
rain 24hr
cm
rain mn
cm
humidity
%
barometer
mb
20260502200012 20 0.0 0.0 0.00 0.00 0.00 62 1013.2
20260502195012 20 0.0 0.0 0.00 0.00 0.00 62 1013.2
20260502194013 20 0.0 0.0 0.00 0.00 0.00 61 1013.2
20260502193011 20 0.0 0.0 0.00 0.00 0.00 61 1013.2
20260502192012 20 0.0 0.0 0.00 0.00 0.00 61 1013.8
20260502191011 20 0.0 0.0 0.00 0.00 0.00 61 1012.3
20260502190012 20 0.0 0.0 0.00 0.00 0.00 61 1012.3
20260502185011 20 0.0 0.0 0.00 0.00 0.00 61 1011.6
20260502184011 20 0.0 0.0 0.00 0.00 0.00 60 1012.3
20260502183012 20 0.0 0.0 0.00 0.00 0.00 60 1011.6
20260502182011 20 0.0 0.0 0.00 0.00 0.00 59 1012.3
20260502181011 20 0.0 0.0 0.00 0.00 0.00 60 1011.6
20260502164012 20 0.0 0.0 0.00 0.00 0.00 59 1012.3
20260502163011 20 0.0 0.0 0.00 0.00 0.00 59 1011.6
20260502162012 20 0.0 0.0 0.00 0.00 0.00 59 1012.6
20260502161011 20 0.0 0.0 0.00 0.00 0.00 59 1012.6
20260502152011 20 0.0 0.0 0.00 0.00 0.00 60 1013.2
20260502151011 20 0.0 0.0 0.00 0.00 0.00 60 1013.2
20260502123012 20 0.0 0.0 0.00 0.00 0.00 58 1014.8
20260502122012 20 0.0 0.0 0.00 0.00 0.00 59 1014.8
20260502121012 20 0.0 0.0 0.00 0.00 0.00 58 1014.8
20260502115012 20 0.0 0.0 0.00 0.00 0.00 57 1015.7
20260502114012 20 0.0 0.0 0.00 0.00 0.00 58 1014.8
20260502113012 20 0.0 0.0 0.00 0.00 0.00 58 1015.7
20260502112012 20 0.0 0.0 0.00 0.00 0.00 58 1015.7
20260502111012 20 0.0 0.0 0.00 0.00 0.00 57 1015.7
20260502110011 20 0.0 0.0 0.00 0.00 0.00 57 1016.4
20260502105011 20 0.0 0.0 0.00 0.00 0.00 57 1015.7
20260502104013 20 0.0 0.0 0.00 0.00 0.00 56 1016.7
20260502103011 20 0.0 0.0 0.00 0.00 0.00 57 1017.3
20260502102012 20 0.0 0.0 0.00 0.00 0.00 57 1016.4
20260502101011 20 0.0 0.0 0.00 0.00 0.00 56 1016.4
20260502091012 20 0.0 0.0 0.00 0.00 0.00 53 1017.3
20260502071012 20 0.0 0.0 0.00 0.00 0.00 60 1017.3
20260502070012 20 0.0 0.0 0.00 0.00 0.00 61 1017.3
20260502065011 20 0.0 0.0 0.00 0.00 0.00 60 1017.3
20260502064012 20 0.0 0.0 0.00 0.00 0.00 60 1018.3
20260502063012 20 0.0 0.0 0.00 0.00 0.00 60 1017.3
20260502062012 20 0.0 0.0 0.00 0.00 0.00 60 1017.3
20260502061011 20 0.0 0.0 0.00 0.00 0.00 60 1017.3
20260502060012 20 0.0 0.0 0.00 0.00 0.00 59 1017.3
20260502055012 20 0.0 0.0 0.00 0.00 0.00 59 1018.3
20260502054012 20 0.0 0.0 0.00 0.00 0.00 59 1017.3
20260502053012 20 0.0 0.0 0.00 0.00 0.00 59 1017.3
20260502052011 20 0.0 0.0 0.00 0.00 0.00 59 1017.3
20260502051012 20 0.0 0.0 0.00 0.00 0.00 59 1017.3
20260502050012 20 0.0 0.0 0.00 0.00 0.00 59 1017.3
20260502045011 20 0.0 0.0 0.00 0.00 0.00 58 1017.3
20260502044013 20 0.0 0.0 0.00 0.00 0.00 58 1017.3
20260502043011 20 0.0 0.0 0.00 0.00 0.00 58 1017.3
20260502042012 20 0.0 0.0 0.00 0.00 0.00 58 1017.3
20260502041012 20 0.0 0.0 0.00 0.00 0.00 58 1017.3
20260502040011 20 0.0 0.0 0.00 0.00 0.00 58 1017.3
20260502035012 20 0.0 0.0 0.00 0.00 0.00 58 1018.3
20260502034012 20 0.0 0.0 0.00 0.00 0.00 58 1018.3
20260502033012 20 0.0 0.0 0.00 0.00 0.00 58 1018.3
20260502032011 20 0.0 0.0 0.00 0.00 0.00 58 1018.3
20260502031012 20 0.0 0.0 0.00 0.00 0.00 58 1018.3
20260502030012 20 0.0 0.0 0.00 0.00 0.00 59 1017.3
20260502025012 20 0.0 0.0 0.00 0.00 0.00 59 1017.3
20260502024011 20 0.0 0.0 0.00 0.00 0.00 59 1017.3
20260502023012 20 0.0 0.0 0.00 0.00 0.00 59 1017.3
20260502022012 20 0.0 0.0 0.00 0.00 0.00 59 1018.3
20260502021011 20 0.0 0.0 0.00 0.00 0.00 59 1018.3
20260502020012 20 0.0 0.0 0.00 0.00 0.00 59 1018.3
20260502015012 20 0.0 0.0 0.00 0.00 0.00 59 1018.3
20260502014012 20 0.0 0.0 0.00 0.00 0.00 59 1018.3
20260502013012 20 0.0 0.0 0.00 0.00 0.00 59 1018.3
20260502012012 20 0.0 0.0 0.00 0.00 0.00 59 1019.2
20260502011011 20 0.0 0.0 0.00 0.00 0.00 59 1018.3
20260502010011 20 0.0 0.0 0.00 0.00 0.00 59 1019.2
20260502005011 20 0.0 0.0 0.00 0.00 0.00 59 1019.2
20260502004012 20 0.0 0.0 0.00 0.00 0.00 59 1019.2
20260502003011 20 0.0 0.0 0.00 0.00 0.00 58 1018.3
20260502002012 20 0.0 0.0 0.00 0.00 0.00 58 1019.2
20260502001011 20 0.0 0.0 0.00 0.00 0.00 58 1019.2
20260502000012 20 0.0 0.0 0.00 0.00 0.00 58 1019.2
20260501235011 20 0.0 0.0 0.00 0.00 0.00 58 1019.2
20260501234011 20 0.0 0.0 0.00 0.00 0.00 58 1018.3
20260501233011 20 0.0 0.0 0.00 0.00 0.00 58 1018.9
20260501232011 20 0.0 0.0 0.00 0.00 0.00 58 1018.9
20260501231011 20 0.0 0.0 0.00 0.00 0.00 58 1018.9
20260501230011 20 0.0 0.0 0.00 0.00 0.00 57 1018.9
20260501225012 20 0.0 0.0 0.00 0.00 0.00 57 1018.9
20260501224011 20 0.0 0.0 0.00 0.00 0.00 57 1018.9
20260501223012 20 0.0 0.0 0.00 0.00 0.00 57 1018.9
20260501222011 20 0.0 0.0 0.00 0.00 0.00 57 1018.9
20260501221012 20 0.0 0.0 0.00 0.00 0.00 56 1019.2
20260501220012 20 0.0 0.0 0.00 0.00 0.00 56 1019.2
20260501215012 20 0.0 0.0 0.00 0.00 0.00 57 1019.2
20260501214011 20 0.0 0.0 0.00 0.00 0.00 57 1019.2
20260501213012 20 0.0 0.0 0.00 0.00 0.00 57 1019.2
20260501212012 20 0.0 0.0 0.00 0.00 0.00 57 1019.2
20260501211012 20 0.0 0.0 0.00 0.00 0.00 56 1018.3
20260501210011 20 0.0 0.0 0.00 0.00 0.00 56 1018.9
20260501205011 20 0.0 0.0 0.00 0.00 0.00 56 1018.9
20260501204012 20 0.0 0.0 0.00 0.00 0.00 56 1018.9
20260501203011 20 0.0 0.0 0.00 0.00 0.00 55 1018.9
20260501202012 21 0.0 0.0 0.00 0.00 0.00 55 1018.9
20260501201012 21 0.0 0.0 0.00 0.00 0.00 55 1018.9